Time,TemperatureF,DewpointF,PressureIn,WindDirection,WindDirectionDegrees,WindSpeedMPH,WindSpeedGustMPH,Humidity,HourlyPrecipIn,Conditions,Clouds,dailyrainin,SoftwareType,DateUTC
2013-03-09 00:01:00,27.0,27.0,-100.00,NNE,20,2.0,4.0,96,0.00,,,-99.99,,2013-03-09 06:01:00,
2013-03-09 00:11:00,27.0,27.0,-100.00,NNE,20,2.0,4.0,96,0.00,,,-99.99,,2013-03-09 06:11:00,
2013-03-09 00:22:00,27.0,26.0,-100.00,NNE,15,2.0,4.0,96,0.00,,,-99.99,,2013-03-09 06:22:00,
2013-03-09 00:32:00,27.0,26.0,-100.00,NNE,15,2.0,6.0,96,0.00,,,-99.99,,2013-03-09 06:32:00,
2013-03-09 00:42:00,27.0,27.0,-100.00,North,5,1.0,4.0,96,0.04,,,-99.99,,2013-03-09 06:42:00,
2013-03-09 00:51:00,27.0,27.0,-100.00,North,5,1.0,4.0,96,0.04,,,-99.99,,2013-03-09 06:51:00,
2013-03-09 01:01:00,27.0,27.0,-100.00,NNE,20,1.0,2.0,96,0.14,,,-99.99,,2013-03-09 07:01:00,
2013-03-09 01:11:00,27.0,27.0,-100.00,NNE,20,1.0,2.0,96,0.14,,,-99.99,,2013-03-09 07:11:00,
2013-03-09 01:21:00,27.0,27.0,-100.00,North,5,2.0,6.0,96,0.62,,,-99.99,,2013-03-09 07:21:00,
2013-03-09 01:32:00,27.0,27.0,-100.00,NNE,25,4.0,6.0,96,0.25,,,-99.99,,2013-03-09 07:32:00,
2013-03-09 01:42:00,28.0,27.0,-100.00,NE,45,1.0,7.0,97,0.06,,,-99.99,,2013-03-09 07:42:00,
2013-03-09 01:52:00,28.0,27.0,-100.00,NE,45,1.0,7.0,97,0.06,,,-99.99,,2013-03-09 07:52:00,
2013-03-09 02:01:00,28.0,27.0,-100.00,NE,40,2.0,7.0,97,0.03,,,-99.99,,2013-03-09 08:01:00,
2013-03-09 02:11:00,28.0,27.0,-100.00,NE,40,2.0,7.0,97,0.03,,,-99.99,,2013-03-09 08:11:00,
2013-03-09 02:21:00,28.0,27.0,-100.00,NE,45,2.0,4.0,97,0.13,,,-99.99,,2013-03-09 08:21:00,
2013-03-09 02:32:00,28.0,27.0,-100.00,NNE,25,2.0,6.0,97,0.31,,,-99.99,,2013-03-09 08:32:00,
2013-03-09 02:42:00,28.0,28.0,-100.00,NNE,30,2.0,6.0,98,0.16,,,-99.99,,2013-03-09 08:42:00,
2013-03-09 02:52:00,28.0,28.0,-100.00,NNE,30,2.0,6.0,98,0.16,,,-99.99,,2013-03-09 08:52:00,
2013-03-09 03:01:00,28.0,28.0,-100.00,NNE,25,3.0,6.0,98,0.17,,,-99.99,,2013-03-09 09:01:00,
2013-03-09 03:12:00,28.0,28.0,-100.00,NNE,25,3.0,6.0,98,0.17,,,-99.99,,2013-03-09 09:12:00,
2013-03-09 03:21:00,29.0,28.0,-100.00,NNE,25,3.0,7.0,98,0.10,,,-99.99,,2013-03-09 09:21:00,
2013-03-09 03:32:00,29.0,28.0,-100.00,NNE,25,2.0,5.0,98,0.04,,,-99.99,,2013-03-09 09:32:00,
2013-03-09 03:42:00,29.0,29.0,-100.00,NE,40,3.0,6.0,98,0.00,,,-99.99,,2013-03-09 09:42:00,
2013-03-09 03:52:00,29.0,29.0,-100.00,NE,40,3.0,6.0,98,0.00,,,-99.99,,2013-03-09 09:52:00,
2013-03-09 04:01:00,29.0,29.0,-100.00,NE,35,2.0,6.0,98,0.00,,,-99.99,,2013-03-09 10:01:00,
2013-03-09 04:11:00,29.0,29.0,-100.00,NE,35,2.0,6.0,98,0.00,,,-99.99,,2013-03-09 10:11:00,
2013-03-09 04:21:00,29.0,29.0,-100.00,North,5,1.0,5.0,99,0.00,,,-99.99,,2013-03-09 10:21:00,
2013-03-09 04:31:00,29.0,29.0,-100.00,NE,45,1.0,4.0,99,0.00,,,-99.99,,2013-03-09 10:31:00,
2013-03-09 04:42:00,29.0,29.0,-100.00,NNE,15,2.0,5.0,99,0.00,,,-99.99,,2013-03-09 10:42:00,
2013-03-09 04:52:00,29.0,29.0,-100.00,NNE,15,2.0,5.0,99,0.00,,,-99.99,,2013-03-09 10:52:00,
2013-03-09 05:01:00,29.0,29.0,-100.00,NNE,20,2.0,7.0,99,0.00,,,-99.99,,2013-03-09 11:01:00,
2013-03-09 05:11:00,29.0,29.0,-100.00,NNE,20,2.0,7.0,99,0.00,,,-99.99,,2013-03-09 11:11:00,
2013-03-09 05:21:00,29.0,29.0,-100.00,North,0,3.0,6.0,99,0.00,,,-99.99,,2013-03-09 11:21:00,
2013-03-09 05:32:00,29.0,29.0,-100.00,NNE,15,1.0,6.0,99,0.00,,,-99.99,,2013-03-09 11:32:00,
2013-03-09 05:42:00,29.0,29.0,-100.00,North,10,1.0,3.0,99,0.00,,,-99.99,,2013-03-09 11:42:00,
2013-03-09 05:52:00,29.0,29.0,-100.00,North,10,1.0,3.0,99,0.00,,,-99.99,,2013-03-09 11:52:00,
2013-03-09 06:01:00,30.0,30.0,-100.00,NNE,20,2.0,5.0,99,0.00,,,-99.99,,2013-03-09 12:01:00,
2013-03-09 06:11:00,30.0,30.0,-100.00,NNE,20,2.0,5.0,99,0.00,,,-99.99,,2013-03-09 12:11:00,
2013-03-09 06:21:00,30.0,30.0,-100.00,NE,35,2.0,6.0,99,0.00,,,-99.99,,2013-03-09 12:21:00,
2013-03-09 06:32:00,30.0,30.0,-100.00,North,5,3.0,6.0,99,0.00,,,-99.99,,2013-03-09 12:32:00,
2013-03-09 06:42:00,30.0,30.0,-100.00,NNE,25,2.0,4.0,99,0.00,,,-99.99,,2013-03-09 12:42:00,
2013-03-09 06:52:00,30.0,30.0,-100.00,NNE,25,2.0,4.0,99,0.00,,,-99.99,,2013-03-09 12:52:00,
2013-03-09 07:02:00,30.0,30.0,-100.00,NNE,20,3.0,6.0,99,0.00,,,-99.99,,2013-03-09 13:02:00,
2013-03-09 07:11:00,30.0,30.0,-100.00,NNE,20,3.0,6.0,99,0.00,,,-99.99,,2013-03-09 13:11:00,
2013-03-09 07:21:00,30.0,30.0,-100.00,North,5,2.0,7.0,99,0.00,,,-99.99,,2013-03-09 13:21:00,
2013-03-09 07:32:00,30.0,30.0,-100.00,North,0,4.0,9.0,99,0.00,,,-99.99,,2013-03-09 13:32:00,
2013-03-09 07:42:00,30.0,30.0,-100.00,North,5,1.0,7.0,99,0.00,,,-99.99,,2013-03-09 13:42:00,
2013-03-09 07:52:00,30.0,30.0,-100.00,North,5,1.0,7.0,99,0.00,,,-99.99,,2013-03-09 13:52:00,
2013-03-09 08:01:00,30.0,30.0,-100.00,NNW,340,3.0,4.0,99,0.00,,,-99.99,,2013-03-09 14:01:00,
2013-03-09 08:11:00,30.0,30.0,-100.00,NNW,340,3.0,4.0,99,0.00,,,-99.99,,2013-03-09 14:11:00,
2013-03-09 08:21:00,30.0,30.0,-100.00,North,5,2.0,7.0,99,0.00,,,-99.99,,2013-03-09 14:21:00,
2013-03-09 08:32:00,30.0,30.0,-100.00,North,5,2.0,5.0,99,0.00,,,-99.99,,2013-03-09 14:32:00,
2013-03-09 08:42:00,29.0,29.0,-100.00,NNW,340,4.0,6.0,99,0.00,,,-99.99,,2013-03-09 14:42:00,
2013-03-09 08:52:00,29.0,29.0,-100.00,NNW,340,4.0,6.0,99,0.00,,,-99.99,,2013-03-09 14:52:00,
2013-03-09 09:01:00,30.0,30.0,-100.00,North,0,4.0,8.0,99,0.00,,,-99.99,,2013-03-09 15:01:00,
2013-03-09 09:11:00,30.0,30.0,-100.00,North,0,4.0,8.0,99,0.00,,,-99.99,,2013-03-09 15:11:00,
2013-03-09 09:22:00,30.0,30.0,-100.00,NW,325,4.0,7.0,99,0.00,,,-99.99,,2013-03-09 15:22:00,
2013-03-09 09:32:00,29.0,29.0,-100.00,NNW,340,3.0,7.0,99,0.00,,,-99.99,,2013-03-09 15:32:00,
2013-03-09 09:42:00,29.0,29.0,-100.00,North,0,4.0,7.0,99,0.00,,,-99.99,,2013-03-09 15:42:00,
2013-03-09 09:52:00,29.0,29.0,-100.00,North,0,4.0,7.0,99,0.00,,,-99.99,,2013-03-09 15:52:00,
2013-03-09 10:01:00,29.0,29.0,-100.00,North,350,3.0,9.0,99,0.00,,,-99.99,,2013-03-09 16:01:00,
2013-03-09 10:11:00,29.0,29.0,-100.00,North,350,3.0,9.0,99,0.00,,,-99.99,,2013-03-09 16:11:00,
2013-03-09 10:21:00,30.0,30.0,-100.00,NNW,340,4.0,8.0,99,0.00,,,-99.99,,2013-03-09 16:21:00,
2013-03-09 10:32:00,29.0,29.0,-100.00,NW,310,5.0,7.0,99,0.00,,,-99.99,,2013-03-09 16:32:00,
2013-03-09 10:42:00,30.0,30.0,-100.00,North,0,3.0,7.0,99,0.00,,,-99.99,,2013-03-09 16:42:00,
2013-03-09 10:51:00,30.0,30.0,-100.00,North,0,3.0,7.0,99,0.00,,,-99.99,,2013-03-09 16:51:00,
2013-03-09 11:01:00,30.0,30.0,-100.00,North,0,4.0,7.0,99,0.00,,,-99.99,,2013-03-09 17:01:00,
2013-03-09 11:11:00,30.0,30.0,-100.00,North,0,4.0,7.0,99,0.00,,,-99.99,,2013-03-09 17:11:00,
2013-03-09 11:22:00,30.0,30.0,-100.00,NW,320,7.0,9.0,99,0.00,,,-99.99,,2013-03-09 17:22:00,
2013-03-09 11:32:00,29.0,29.0,-100.00,NW,320,6.0,9.0,99,0.00,,,-99.99,,2013-03-09 17:32:00,
2013-03-09 11:42:00,29.0,29.0,-100.00,NW,325,6.0,9.0,99,0.00,,,-99.99,,2013-03-09 17:42:00,
2013-03-09 11:52:00,29.0,29.0,-100.00,NW,325,6.0,9.0,99,0.00,,,-99.99,,2013-03-09 17:52:00,
2013-03-09 12:01:00,29.0,29.0,-100.00,NW,320,5.0,9.0,99,0.00,,,-99.99,,2013-03-09 18:01:00,
2013-03-09 12:11:00,29.0,29.0,-100.00,NW,320,5.0,9.0,99,0.00,,,-99.99,,2013-03-09 18:11:00,
2013-03-09 12:21:00,30.0,30.0,-100.00,NNW,335,4.0,9.0,99,0.00,,,-99.99,,2013-03-09 18:21:00,
2013-03-09 12:32:00,31.0,31.0,-100.00,NNW,330,4.0,9.0,99,0.00,,,-99.99,,2013-03-09 18:32:00,
2013-03-09 12:42:00,31.0,31.0,-100.00,North,0,6.0,9.0,99,0.00,,,-99.99,,2013-03-09 18:42:00,
2013-03-09 12:52:00,31.0,31.0,-100.00,North,0,6.0,9.0,99,0.00,,,-99.99,,2013-03-09 18:52:00,
2013-03-09 13:01:00,31.0,31.0,-100.00,NW,315,7.0,9.0,99,0.00,,,-99.99,,2013-03-09 19:01:00,
2013-03-09 13:11:00,31.0,31.0,-100.00,NW,315,7.0,9.0,99,0.00,,,-99.99,,2013-03-09 19:11:00,
2013-03-09 13:22:00,30.0,30.0,-100.00,NNW,330,6.0,9.0,99,0.00,,,-99.99,,2013-03-09 19:22:00,
2013-03-09 13:32:00,30.0,30.0,-100.00,NNW,340,7.0,9.0,99,0.00,,,-99.99,,2013-03-09 19:32:00,
2013-03-09 13:42:00,29.0,29.0,-100.00,NW,325,6.0,9.0,99,0.00,,,-99.99,,2013-03-09 19:42:00,
2013-03-09 13:52:00,29.0,29.0,-100.00,NW,325,6.0,9.0,99,0.00,,,-99.99,,2013-03-09 19:52:00,
2013-03-09 14:01:00,29.0,29.0,-100.00,NW,320,3.0,9.0,99,0.01,,,-99.99,,2013-03-09 20:01:00,
2013-03-09 14:11:00,29.0,29.0,-100.00,NW,320,3.0,9.0,99,0.01,,,-99.99,,2013-03-09 20:11:00,
2013-03-09 14:21:00,28.0,28.0,-100.00,NNW,345,4.0,20.0,99,0.01,,,-99.99,,2013-03-09 20:21:00,
2013-03-09 14:32:00,28.0,28.0,-100.00,NNW,330,4.0,9.0,99,0.00,,,-99.99,,2013-03-09 20:32:00,
2013-03-09 14:42:00,28.0,28.0,-100.00,NNW,340,4.0,19.0,99,0.03,,,-99.99,,2013-03-09 20:42:00,
2013-03-09 14:52:00,28.0,28.0,-100.00,NNW,340,4.0,19.0,99,0.03,,,-99.99,,2013-03-09 20:52:00,
2013-03-09 15:02:00,29.0,29.0,-100.00,NNW,345,6.0,9.0,99,0.04,,,-99.99,,2013-03-09 21:02:00,
2013-03-09 15:12:00,29.0,29.0,-100.00,NNW,345,6.0,9.0,99,0.04,,,-99.99,,2013-03-09 21:12:00,
2013-03-09 15:21:00,28.0,28.0,-100.00,NW,325,5.0,9.0,99,0.07,,,-99.99,,2013-03-09 21:21:00,
2013-03-09 15:32:00,28.0,28.0,-100.00,NNW,330,6.0,9.0,99,0.10,,,-99.99,,2013-03-09 21:32:00,
2013-03-09 15:42:00,27.0,27.0,-100.00,NW,320,4.0,9.0,99,0.10,,,-99.99,,2013-03-09 21:42:00,
2013-03-09 15:52:00,27.0,27.0,-100.00,NW,320,4.0,9.0,99,0.10,,,-99.99,,2013-03-09 21:52:00,
2013-03-09 16:01:00,27.0,27.0,-100.00,NW,315,3.0,9.0,99,0.07,,,-99.99,,2013-03-09 22:01:00,
2013-03-09 16:11:00,27.0,27.0,-100.00,NW,315,3.0,9.0,99,0.07,,,-99.99,,2013-03-09 22:11:00,
2013-03-09 16:21:00,28.0,28.0,-100.00,NNW,345,5.0,20.0,99,0.00,,,-99.99,,2013-03-09 22:21:00,
2013-03-09 16:32:00,28.0,28.0,-100.00,North,0,5.0,19.0,99,0.00,,,-99.99,,2013-03-09 22:32:00,
2013-03-09 16:42:00,28.0,28.0,-100.00,NNW,345,4.0,9.0,99,0.00,,,-99.99,,2013-03-09 22:42:00,
2013-03-09 16:51:00,28.0,28.0,-100.00,NNW,345,4.0,9.0,99,0.00,,,-99.99,,2013-03-09 22:51:00,
2013-03-09 17:01:00,28.0,28.0,-100.00,NNW,340,5.0,9.0,99,0.00,,,-99.99,,2013-03-09 23:01:00,
2013-03-09 17:11:00,28.0,28.0,-100.00,NNW,340,5.0,9.0,99,0.00,,,-99.99,,2013-03-09 23:11:00,
2013-03-09 17:21:00,28.0,28.0,-100.00,NNW,345,6.0,9.0,99,0.00,,,-99.99,,2013-03-09 23:21:00,
2013-03-09 17:32:00,28.0,28.0,-100.00,NNW,340,5.0,9.0,99,0.00,,,-99.99,,2013-03-09 23:32:00,
2013-03-09 17:42:00,28.0,28.0,-100.00,North,0,5.0,9.0,99,0.00,,,-99.99,,2013-03-09 23:42:00,
2013-03-09 17:52:00,28.0,28.0,-100.00,North,0,5.0,9.0,99,0.00,,,-99.99,,2013-03-09 23:52:00,
2013-03-09 18:01:00,28.0,28.0,-100.00,North,5,5.0,9.0,99,0.00,,,-99.99,,2013-03-10 00:01:00,
2013-03-09 18:11:00,28.0,28.0,-100.00,North,5,5.0,9.0,99,0.00,,,-99.99,,2013-03-10 00:11:00,
2013-03-09 18:22:00,28.0,28.0,-100.00,NW,325,5.0,9.0,98,0.00,,,-99.99,,2013-03-10 00:22:00,
2013-03-09 18:32:00,28.0,27.0,-100.00,NNW,335,5.0,9.0,98,0.00,,,-99.99,,2013-03-10 00:32:00,
2013-03-09 18:42:00,28.0,27.0,-100.00,NNW,330,4.0,9.0,96,0.00,,,-99.99,,2013-03-10 00:42:00,
2013-03-09 18:52:00,28.0,27.0,-100.00,NNW,330,4.0,9.0,96,0.00,,,-99.99,,2013-03-10 00:52:00,
2013-03-09 19:01:00,28.0,27.0,-100.00,NW,325,4.0,9.0,96,0.00,,,-99.99,,2013-03-10 01:01:00,
2013-03-09 19:11:00,28.0,27.0,-100.00,NW,325,4.0,9.0,96,0.00,,,-99.99,,2013-03-10 01:11:00,
2013-03-09 19:21:00,28.0,27.0,-100.00,NNW,330,5.0,9.0,95,0.00,,,-99.99,,2013-03-10 01:21:00,
2013-03-09 19:31:00,28.0,27.0,-100.00,NW,325,6.0,9.0,95,0.00,,,-99.99,,2013-03-10 01:31:00,
2013-03-09 19:41:00,27.0,26.0,-100.00,NW,320,4.0,9.0,93,0.00,,,-99.99,,2013-03-10 01:41:00,
2013-03-09 19:52:00,27.0,26.0,-100.00,NW,320,4.0,9.0,93,0.00,,,-99.99,,2013-03-10 01:52:00,
2013-03-09 20:01:00,27.0,25.0,-100.00,NNW,335,4.0,9.0,91,0.00,,,-99.99,,2013-03-10 02:01:00,
2013-03-09 20:11:00,27.0,25.0,-100.00,NNW,335,4.0,9.0,91,0.00,,,-99.99,,2013-03-10 02:11:00,
2013-03-09 20:22:00,27.0,25.0,-100.00,NNW,340,3.0,9.0,90,0.00,,,-99.99,,2013-03-10 02:22:00,
2013-03-09 20:32:00,27.0,25.0,-100.00,NNW,330,6.0,9.0,90,0.00,,,-99.99,,2013-03-10 02:32:00,
2013-03-09 20:42:00,27.0,25.0,-100.00,NNW,340,6.0,9.0,90,0.00,,,-99.99,,2013-03-10 02:42:00,
2013-03-09 20:52:00,27.0,25.0,-100.00,NNW,340,6.0,9.0,90,0.00,,,-99.99,,2013-03-10 02:52:00,
2013-03-09 21:01:00,27.0,25.0,-100.00,NNW,330,3.0,9.0,90,0.00,,,-99.99,,2013-03-10 03:01:00,
2013-03-09 21:11:00,27.0,25.0,-100.00,NNW,330,3.0,9.0,90,0.00,,,-99.99,,2013-03-10 03:11:00,
2013-03-09 21:22:00,27.0,25.0,-100.00,NNW,335,6.0,9.0,90,0.00,,,-99.99,,2013-03-10 03:22:00,
2013-03-09 21:32:00,27.0,25.0,-100.00,NNW,330,4.0,9.0,90,0.00,,,-99.99,,2013-03-10 03:32:00,
2013-03-09 21:42:00,27.0,25.0,-100.00,NNW,340,4.0,9.0,90,0.00,,,-99.99,,2013-03-10 03:42:00,
2013-03-09 21:52:00,27.0,25.0,-100.00,NNW,340,4.0,9.0,90,0.00,,,-99.99,,2013-03-10 03:52:00,
2013-03-09 22:01:00,27.0,25.0,-100.00,NNW,335,3.0,9.0,90,0.00,,,-99.99,,2013-03-10 04:01:00,
2013-03-09 22:11:00,27.0,25.0,-100.00,NNW,335,3.0,9.0,90,0.00,,,-99.99,,2013-03-10 04:11:00,
2013-03-09 22:21:00,27.0,25.0,-100.00,NNW,335,5.0,21.0,92,0.00,,,-99.99,,2013-03-10 04:21:00,
2013-03-09 22:31:00,27.0,26.0,-100.00,NNW,345,4.0,23.0,92,0.00,,,-99.99,,2013-03-10 04:31:00,
2013-03-09 22:42:00,27.0,26.0,-100.00,NNW,330,7.0,23.0,94,0.00,,,-99.99,,2013-03-10 04:42:00,
2013-03-09 22:52:00,27.0,26.0,-100.00,NNW,330,7.0,23.0,94,0.00,,,-99.99,,2013-03-10 04:52:00,
2013-03-09 23:01:00,26.0,25.0,-100.00,North,0,9.0,27.0,93,0.00,,,-99.99,,2013-03-10 05:01:00,
2013-03-09 23:11:00,26.0,25.0,-100.00,North,0,9.0,27.0,93,0.00,,,-99.99,,2013-03-10 05:11:00,
2013-03-09 23:22:00,26.0,23.0,-100.00,NNW,340,6.0,27.0,89,0.00,,,-99.99,,2013-03-10 05:22:00,
2013-03-09 23:31:00,26.0,23.0,-100.00,NNW,335,4.0,21.0,89,0.00,,,-99.99,,2013-03-10 05:31:00,
2013-03-09 23:42:00,26.0,23.0,-100.00,NNW,340,4.0,20.0,89,0.00,,,-99.99,,2013-03-10 05:42:00,
2013-03-09 23:52:00,26.0,23.0,-100.00,NNW,340,4.0,20.0,89,0.00,,,-99.99,,2013-03-10 05:52:00,